Temperature
18 18 17 17 17 17 17 17 17 18 18 18 18 19 19 18 18 18 17 17 17 17 17 17 17 17 17 17 17 17 17 17 17 17 17 17 17 17 17 17 17 17 17
18 18 17 17 17 17 17 17 17 17 18 18 18 18 18 18 18 17 17 17 17 17 17 17 17 17 17 17 17 17 17 17 17 17 17 17 17 17 17 17 17 17 17
18 18 17 17 17 17 17 17 18 17 17 18 18 18 18 18 18 18 17 17 17 17 17 17 17 17 17 17 17 17 17 17 17 17 17 17 17 17 17 17 17 17 17
18 18 17 17 17 17 17 17 17 17 17 18 18 18 18 18 18 18 17 17 17 16 17 17 17 17 17 17 17 17 17 17 17 17 17 17 17 17 17 17 17 16 16
18 18 18 17 17 17 17 17 17 17 18 18 18 18 18 18 18 18 18 18 17 17 17 17 17 17 17 17 17 17 17 17 17 17 17 17 17 16 16 16 16 16 16
18 18 18 18 17 17 17 17 17 17 17 17 18 18 18 18 18 18 18 18 18 17 17 16 17 17 17 17 17 17 17 17 17 17 17 16 16 16 16 16 16 16 16
18 18 18 18 17 17 17 17 17 17 17 17 17 18 18 18 18 18 18 18 18 18 17 17 17 16 17 17 17 17 17 17 17 17 17 16 16 16 16 16 16 16 16
17 17 17 18 17 17 17 17 17 17 17 17 17 17 17 18 17 18 17 17 18 18 17 17 17 17 16 16 17 17 17 17 17 17 17 17 16 16 16 16 16 16 16
17 17 17 17 17 17 17 17 17 17 17 17 17 17 17 18 18 18 18 17 17 18 17 17 17 17 17 16 16 17 17 17 17 17 17 17 17 16 16 16 16 16 16
17 17 17 17 17 17 17 17 17 17 16 16 16 16 17 17 17 17 17 17 18 17 17 17 17 17 17 16 16 16 16 16 16 16 16 16 16 16 16 16 16 16 16
16 16 16 16 16 16 16 16 16 16 16 16 16 16 16 16 16 16 17 17 17 17 17 17 17 17 17 16 16 16 16 16 16 16 16 16 16 16 16 16 16 16 16
16 16 16 16 16 16 16 16 16 16 16 16 16 16 16 15 16 16 16 16 16 17 16 16 16 16 16 16 16 16 16 16 16 16 16 16 16 16 16 16 16 16 15
15 15 15 16 16 16 16 16 16 16 16 16 16 16 15 15 15 15 15 15 15 16 16 16 16 16 16 16 16 16 16 16 16 16 16 15 15 15 15 15 15 15 15
14 15 15 15 15 15 15 16 16 16 16 15 15 15 15 15 15 15 15 15 15 15 15 15 16 16 16 16 16 16 16 16 16 16 15 15 15 15 15 15 15 15 15
14 14 14 14 15 15 15 15 15 15 15 15 15 15 15 15 15 14 14 14 14 14 14 15 15 15 15 15 16 16 15 16 16 15 15 15 15 15 15 15 15 15 14
13 13 14 14 14 14 14 14 14 15 15 15 15 14 14 14 14 14 14 14 14 14 14 14 14 14 15 15 15 15 15 15 15 15 15 15 15 14 14 14 14 14 14
13 13 13 13 13 13 13 14 14 14 14 14 14 14 14 14 14 14 14 14 14 14 14 14 14 14 14 14 14 15 15 15 15 15 15 15 14 14 14 14 14 14 14
13 13 13 13 13 13 13 13 13 13 13 13 13 13 13 13 13 13 14 13 14 14 14 13 13 13 13 14 14 14 14 14 14 14 14 14 14 14 14 14 14 14 14
12 12 12 13 13 13 13 13 13 13 13 13 13 13 13 13 13 13 13 13 13 13 13 13 13 13 13 14 14 14 14 14 14 14 14 14 14 14 14 14 14 14 14
12 12 12 12 12 12 13 13 13 13 13 13 13 13 13 13 13 13 13 13 13 13 13 13 13 13 13 13 13 14 13 14 13 13 13 13 13 13 13 13 13 13 13
11 11 12 12 12 12 12 13 13 12 12 12 13 13 13 13 13 13 13 13 13 14 13 13 13 13 13 13 13 13 13 13 13 13 13 13 13 13 13 13 13 13 13
11 11 11 11 11 12 12 12 12 12 12 12 12 13 13 13 13 13 13 13 13 13 13 13 13 13 13 13 13 13 13 13 12 12 12 12 12 12 12 12 12 12 12
11 11 11 11 11 11 11 12 12 12 12 12 12 13 13 13 13 13 14 14 14 14 14 13 14 13 13 13 13 13 13 13 12 12 12 11 11 11 11 11 11 11 11
10 10 10 10 10 11 11 11 12 11 12 12 12 12 13 13 13 13 13 13 13 13 13 13 13 13 13 13 13 13 13 12 12 12 11 11 11 10 10 10 10 11 11
10 10 10 10 10 10 10 11 11 11 11 12 12 12 12 12 13 13 13 13 13 13 14 14 14 14 14 13 13 13 12 12 12 11 11 11 10 10 10 10 10 10 10
9 9 9 9 9 10 10 10 10 10 11 11 11 12 12 12 13 13 13 13 13 13 13 13 13 13 13 13 13 12 12 12 12 11 11 11 10 10 10 9 9 9 9
Wind_Speed
8 8 8 7 8 8 8 8 8 8 8 8 7 7 6 5 4 2 4 5 2 0 2 3 4 4 3 2 2 2 3 4 5 5 5 5 6 6 6 5 4 4 3
9 7 8 8 8 8 8 8 9 7 8 7 7 7 6 6 5 4 3 6 6 3 1 2 4 4 4 3 3 3 3 4 5 5 5 5 5 5 5 5 4 3 3
11 10 9 8 9 10 10 9 9 8 7 7 8 8 7 6 6 5 4 2 4 7 4 2 3 4 4 4 4 3 3 4 4 5 5 5 5 5 5 5 4 4 4
14 11 9 9 10 9 8 7 8 8 9 8 8 8 7 6 8 6 6 6 4 3 7 5 3 2 3 4 4 3 4 4 5 5 5 5 5 5 5 4 4 5 5
14 11 9 9 10 8 8 8 9 9 9 8 8 7 7 7 7 7 7 6 5 4 4 8 6 4 3 3 3 3 4 4 5 5 5 5 5 5 5 4 4 5 5
13 11 8 9 9 8 8 8 9 9 8 7 8 8 8 7 7 7 7 6 6 6 5 5 7 8 6 3 3 3 3 4 4 4 4 4 4 4 4 3 4 4 4
12 10 8 9 8 8 9 9 8 9 8 8 8 8 8 10 9 7 8 7 8 7 7 7 5 5 7 8 5 4 4 4 4 4 4 4 4 3 3 2 2 2 2
12 10 10 9 9 8 9 8 7 6 7 7 7 6 7 9 8 10 9 8 9 8 9 8 8 7 5 7 8 6 4 4 4 4 4 4 4 3 3 2 2 1 1
12 11 11 10 10 9 8 9 9 8 7 6 7 6 6 7 5 8 10 10 10 8 8 8 9 9 8 6 7 10 7 5 4 4 4 4 4 3 3 2 2 2 1
10 12 11 11 10 9 10 10 10 8 7 6 5 5 5 3 3 4 6 8 9 9 10 7 8 9 8 7 6 7 9 7 6 5 5 4 4 4 3 3 3 2 3
6 8 10 10 10 10 11 11 11 11 9 8 6 5 5 4 6 5 4 5 6 8 8 8 8 8 8 9 7 9 11 9 8 6 6 5 5 4 4 4 4 4 4
2 4 6 8 9 9 11 11 11 12 10 10 8 7 6 5 5 5 6 5 4 4 5 5 6 6 7 8 9 10 11 11 10 9 7 6 6 5 4 4 5 5 5
0 2 3 5 6 7 8 9 10 11 11 11 11 9 8 7 4 5 5 5 4 3 3 4 5 5 6 8 8 11 12 12 12 11 9 7 7 6 5 5 5 6 6
2 1 1 2 3 4 5 7 7 8 9 11 11 11 8 8 7 6 5 5 5 5 5 5 3 4 5 7 5 9 10 14 13 12 11 9 8 7 7 6 6 6 6
4 4 2 2 1 1 3 4 5 6 6 8 8 10 8 7 7 7 6 6 6 5 6 4 3 2 3 4 4 7 9 12 13 12 12 10 9 8 8 7 7 7 7
6 5 4 4 3 2 1 1 2 3 5 5 4 6 6 5 6 6 5 5 4 4 3 3 3 3 2 3 4 6 6 8 10 10 10 10 9 9 8 8 8 8 9
7 7 6 5 4 3 2 1 1 3 4 5 5 5 5 5 5 4 4 4 4 4 3 2 2 2 3 4 4 5 6 7 8 9 8 8 7 7 7 7 7 8 9
9 8 7 7 6 5 4 3 1 1 3 4 4 5 6 5 5 5 5 5 5 5 4 4 3 3 3 3 3 4 4 5 5 7 6 5 4 3 2 3 4 5 7
10 10 9 8 7 6 5 4 3 1 1 2 3 4 4 5 5 4 5 5 4 4 4 4 4 3 3 3 4 4 5 4 6 8 8 8 7 6 5 4 3 3 3
11 11 10 9 8 7 7 5 3 3 2 1 2 2 3 3 4 4 4 5 5 5 5 5 4 4 4 4 5 6 5 5 5 6 8 9 11 11 11 9 8 6 4
11 11 10 10 10 9 9 8 4 3 3 2 1 0 1 1 1 2 3 5 6 5 5 5 5 4 4 4 4 5 6 6 6 4 6 6 7 7 8 10 10 10 9
11 11 10 10 10 10 11 11 7 3 3 2 2 1 1 3 4 4 2 1 2 4 5 5 5 5 5 5 4 5 7 7 4 3 5 6 7 7 9 11 12 13 12
10 10 10 10 10 12 13 11 8 4 4 3 2 1 0 1 3 5 7 6 4 4 2 2 4 5 5 6 6 6 5 5 6 5 6 6 6 8 10 13 15 16 16
9 9 9 10 9 12 15 12 8 4 4 4 3 1 1 1 1 4 8 8 7 6 3 3 5 6 6 5 5 6 8 9 8 4 4 4 5 6 8 12 17 18 19
8 8 9 9 10 11 15 14 9 4 4 4 4 3 1 2 2 1 7 10 10 8 12 16 16 13 13 10 5 6 7 7 6 4 3 4 5 6 6 7 14 19 20
8 7 8 9 9 10 14 15 11 4 4 4 3 4 5 4 2 1 6 9 10 10 10 10 10 10 10 8 3 4 4 5 7 4 4 4 6 5 4 4 6 8 12
Wind_Direction
227 219 217 210 215 210 200 215 220 209 214 213 213 214 203 197 195 173 124 129 131 170 214 196 185 182 184 185 184 177 169 171 168 162 158 153 153 154 152 152 152 155 157
236 230 228 215 218 216 214 215 217 209 214 212 213 215 224 211 215 184 168 150 159 166 206 219 209 194 189 194 202 202 190 183 181 178 176 175 174 174 172 175 181 191 202
238 235 234 224 218 215 216 217 214 213 214 209 214 220 220 225 230 210 186 196 168 168 183 214 224 203 198 203 208 205 197 190 188 192 191 189 190 190 192 199 211 223 233
239 235 234 233 226 219 217 211 217 209 211 216 218 212 216 207 227 223 209 202 195 176 173 180 207 199 198 201 203 203 198 191 190 195 195 196 199 203 211 221 232 244 254
244 234 231 233 228 219 218 214 213 214 217 219 226 223 225 213 217 218 223 214 190 198 179 156 184 187 178 187 191 194 195 192 190 195 197 200 204 211 220 232 247 256 260
247 241 233 230 226 218 217 217 212 214 225 224 231 226 223 222 220 220 230 223 219 205 196 174 184 175 174 174 179 187 191 187 184 188 192 197 203 208 218 234 254 259 256
239 236 234 234 223 217 216 214 209 211 218 225 232 229 224 227 230 213 226 228 222 212 207 197 198 179 169 174 181 178 177 175 174 176 176 179 181 188 198 211 234 243 249
231 229 226 227 221 213 210 207 201 207 212 218 225 233 233 223 224 230 225 230 235 209 220 213 198 191 189 176 150 165 162 164 166 167 166 162 163 167 173 186 197 204 209
226 225 226 223 218 210 209 202 197 204 207 213 226 224 229 229 220 217 221 223 231 228 221 222 217 204 193 189 168 173 174 175 178 178 173 168 168 168 166 164 173 177 172
226 220 223 222 214 211 209 206 199 199 195 201 215 234 246 272 223 216 212 223 224 225 228 220 224 220 206 203 181 151 175 188 192 193 189 183 182 186 187 188 187 183 165
228 221 220 220 216 214 214 211 202 200 199 197 194 200 224 244 247 244 231 213 212 219 224 226 221 222 214 210 199 187 184 197 203 205 206 199 194 195 196 201 200 186 174
228 221 218 218 219 218 216 211 207 205 205 204 198 193 195 205 215 224 235 239 233 217 214 221 229 222 222 220 212 175 190 202 209 212 211 206 203 203 207 207 204 203 204
358 207 210 218 218 218 216 211 209 209 207 206 206 204 205 209 197 203 221 232 237 230 218 217 223 226 225 226 214 185 203 207 211 214 213 208 206 208 218 225 227 224 225
13 37 144 199 210 212 213 212 214 211 209 210 212 209 209 210 204 204 209 207 218 222 223 219 193 212 221 229 207 196 209 204 211 213 213 209 208 208 216 230 242 246 246
35 44 61 81 124 190 210 213 213 209 207 210 211 209 206 204 201 206 210 210 212 215 214 205 196 188 215 228 184 218 220 193 204 210 211 209 209 210 220 230 240 249 253
34 44 52 64 70 85 133 189 198 196 195 194 196 198 198 198 195 197 200 203 208 210 207 181 187 178 190 206 197 229 218 165 196 205 207 209 212 216 225 237 245 251 255
31 37 38 46 54 60 67 86 147 176 182 174 171 175 177 171 177 184 190 191 195 200 201 172 165 186 197 203 183 208 201 198 183 185 195 201 208 218 235 248 257 261 262
34 37 43 42 41 43 48 50 60 174 173 163 161 167 167 168 175 180 184 190 192 194 192 182 175 186 192 186 183 182 182 186 166 141 150 157 166 180 225 267 277 275 273
38 37 40 42 38 35 38 43 47 55 104 141 162 175 176 174 178 186 190 192 193 189 188 190 172 165 170 171 170 163 163 154 140 128 119 108 97 89 73 51 18 336 310
39 38 37 37 36 33 28 28 37 48 54 88 155 163 178 186 188 191 192 191 189 181 184 185 171 165 159 170 177 164 147 130 122 117 102 100 96 87 74 62 51 42 32
40 39 38 37 35 33 25 15 20 34 40 34 39 126 197 200 219 209 203 192 188 183 179 180 169 162 159 166 169 159 140 127 103 108 108 97 96 81 73 63 55 53 57
37 37 35 34 36 32 24 23 12 45 48 35 19 349 219 197 191 183 164 125 175 187 178 175 172 165 153 150 148 148 147 149 123 107 103 86 82 75 61 56 54 60 62
35 33 31 30 32 27 23 26 18 33 59 59 54 36 356 128 183 160 150 150 116 61 14 179 155 145 144 146 152 151 148 128 113 124 113 95 89 83 73 60 59 63 63
32 30 29 28 29 26 20 20 6 46 64 62 62 61 61 114 156 164 160 146 125 105 101 127 116 109 112 128 134 128 119 113 108 108 122 107 104 94 86 70 63 65 64
29 31 30 26 25 25 19 15 0 48 62 65 64 67 68 121 73 243 157 137 121 102 72 71 74 82 71 61 80 129 138 137 124 115 112 117 128 112 94 91 78 74 70
27 30 35 30 28 24 20 16 4 31 52 63 72 84 66 70 91 299 156 143 133 126 122 113 107 111 103 93 41 120 140 141 137 126 134 141 157 148 115 83 75 76 76
Height
1554 1557 1558 1558 1560 1561 1561 1562 1564 1566 1567 1569 1570 1571 1572 1573 1574 1573 1572 1570 1569 1569 1569 1569 1570 1570 1571 1572 1573 1574 1575 1576 1576 1577 1578 1579 1579 1580 1581 1581 1582 1582 1582
1551 1553 1555 1556 1557 1558 1560 1561 1562 1564 1565 1567 1568 1570 1571 1572 1572 1572 1572 1570 1569 1568 1568 1568 1569 1569 1570 1571 1572 1573 1574 1575 1576 1577 1577 1578 1579 1580 1580 1581 1582 1582 1582
1548 1549 1551 1553 1554 1555 1557 1558 1561 1562 1563 1565 1566 1568 1569 1570 1571 1571 1571 1571 1570 1568 1568 1568 1568 1569 1569 1570 1571 1572 1573 1574 1575 1576 1577 1577 1578 1579 1580 1580 1581 1581 1581
1544 1545 1547 1549 1551 1552 1554 1555 1557 1559 1561 1563 1565 1566 1567 1568 1569 1570 1570 1570 1570 1569 1568 1567 1567 1568 1569 1569 1570 1571 1572 1573 1574 1574 1575 1576 1577 1578 1579 1579 1580 1580 1580
1540 1541 1542 1544 1547 1548 1550 1552 1554 1557 1559 1561 1562 1564 1565 1566 1567 1567 1569 1569 1569 1568 1569 1567 1567 1567 1568 1568 1569 1570 1570 1571 1572 1573 1574 1575 1576 1576 1577 1577 1578 1578 1578
1535 1537 1538 1540 1542 1544 1546 1548 1551 1553 1556 1558 1560 1561 1562 1564 1564 1565 1566 1567 1568 1568 1569 1568 1567 1567 1567 1567 1568 1568 1569 1570 1571 1572 1573 1573 1574 1575 1575 1576 1576 1576 1577
1530 1532 1533 1535 1537 1539 1542 1544 1547 1549 1552 1555 1557 1558 1559 1560 1562 1563 1564 1565 1566 1567 1567 1567 1568 1568 1567 1567 1567 1567 1568 1569 1569 1570 1571 1572 1572 1573 1573 1574 1574 1574 1575
1524 1526 1528 1530 1532 1534 1536 1539 1542 1544 1547 1550 1553 1555 1556 1557 1557 1559 1560 1561 1563 1564 1565 1566 1567 1567 1568 1567 1567 1567 1567 1568 1568 1569 1570 1570 1571 1571 1572 1572 1572 1573 1573
1518 1520 1522 1524 1526 1529 1531 1533 1536 1538 1542 1545 1548 1550 1552 1552 1553 1555 1556 1558 1559 1561 1562 1564 1565 1566 1566 1567 1566 1566 1566 1567 1567 1568 1569 1569 1570 1570 1570 1570 1571 1571 1571
1512 1514 1516 1519 1521 1523 1526 1528 1531 1533 1536 1539 1541 1544 1547 1548 1550 1551 1553 1554 1555 1557 1559 1560 1562 1563 1564 1565 1565 1565 1566 1566 1567 1567 1568 1568 1569 1569 1569 1569 1569 1570 1570
1507 1509 1512 1514 1516 1518 1521 1523 1525 1528 1530 1533 1535 1538 1541 1543 1546 1548 1549 1550 1551 1553 1555 1556 1558 1560 1561 1562 1563 1563 1564 1565 1566 1566 1567 1567 1568 1568 1568 1568 1568 1569 1569
1504 1505 1507 1509 1511 1514 1516 1519 1521 1523 1525 1528 1530 1532 1535 1538 1540 1543 1545 1546 1548 1549 1550 1552 1554 1555 1557 1559 1560 1561 1562 1563 1564 1565 1566 1566 1567 1567 1567 1567 1567 1567 1568
1502 1503 1504 1506 1507 1510 1512 1514 1516 1518 1520 1522 1524 1526 1529 1532 1535 1537 1540 1541 1543 1545 1546 1548 1549 1551 1553 1555 1557 1558 1559 1561 1562 1563 1564 1565 1565 1565 1565 1566 1566 1566 1566
1501 1501 1502 1503 1504 1506 1508 1510 1512 1514 1516 1518 1520 1522 1524 1526 1529 1531 1534 1536 1538 1540 1542 1543 1545 1547 1549 1551 1553 1554 1556 1558 1560 1561 1562 1563 1563 1563 1564 1564 1564 1564 1564
1501 1501 1501 1502 1503 1503 1505 1507 1508 1510 1512 1514 1515 1517 1519 1522 1524 1526 1529 1531 1535 1535 1537 1539 1541 1542 1545 1547 1549 1551 1554 1555 1557 1558 1559 1560 1561 1561 1562 1562 1562 1562 1562
1502 1502 1502 1502 1502 1503 1503 1505 1506 1507 1509 1510 1512 1514 1516 1518 1520 1522 1524 1527 1530 1532 1534 1535 1537 1539 1541 1543 1545 1548 1550 1551 1554 1555 1556 1557 1558 1559 1560 1560 1560 1560 1560
1504 1504 1503 1503 1503 1503 1503 1503 1504 1506 1507 1508 1510 1512 1514 1515 1517 1519 1521 1523 1525 1528 1531 1533 1534 1536 1538 1540 1542 1544 1547 1548 1550 1552 1553 1555 1556 1556 1557 1557 1557 1557 1557
1505 1505 1504 1504 1503 1503 1503 1503 1504 1505 1506 1507 1509 1511 1512 1514 1516 1518 1520 1521 1524 1526 1529 1531 1532 1534 1536 1537 1539 1541 1543 1545 1547 1548 1550 1552 1553 1554 1554 1554 1554 1554 1554
1507 1506 1505 1505 1504 1504 1504 1504 1504 1505 1506 1507 1508 1509 1511 1513 1515 1517 1519 1521 1523 1525 1527 1529 1530 1532 1533 1534 1536 1538 1540 1542 1544 1546 1547 1549 1550 1551 1551 1551 1551 1551 1551
1509 1508 1507 1506 1505 1505 1505 1504 1505 1505 1505 1506 1507 1509 1511 1513 1514 1516 1518 1520 1522 1524 1525 1527 1529 1530 1531 1532 1535 1536 1538 1540 1542 1544 1545 1546 1547 1548 1549 1549 1549 1548 1548
1511 1510 1508 1507 1506 1506 1505 1505 1505 1505 1506 1506 1507 1509 1510 1512 1514 1516 1518 1519 1521 1523 1524 1526 1527 1529 1530 1531 1533 1535 1536 1538 1540 1542 1543 1545 1546 1546 1547 1547 1546 1546 1545
1513 1512 1510 1509 1507 1506 1505 1505 1505 1505 1506 1506 1507 1508 1510 1511 1513 1515 1517 1518 1520 1522 1524 1525 1526 1528 1529 1530 1532 1533 1535 1537 1539 1542 1543 1544 1545 1545 1545 1545 1545 1545 1544
1516 1514 1512 1510 1509 1507 1506 1505 1505 1505 1505 1506 1506 1507 1509 1511 1513 1515 1516 1518 1519 1521 1523 1525 1526 1527 1529 1530 1531 1533 1535 1537 1538 1541 1543 1544 1545 1545 1545 1545 1545 1544 1544
1518 1516 1514 1512 1510 1508 1507 1505 1505 1505 1505 1505 1506 1507 1509 1510 1513 1515 1516 1518 1520 1521 1523 1525 1527 1527 1529 1530 1531 1533 1535 1537 1539 1541 1543 1544 1546 1546 1546 1546 1545 1545 1544
1520 1518 1516 1513 1511 1509 1507 1506 1505 1505 1505 1505 1506 1507 1509 1510 1512 1514 1517 1518 1520 1522 1523 1525 1526 1528 1529 1530 1532 1534 1536 1538 1540 1542 1543 1544 1546 1546 1547 1546 1546 1545 1545
1522 1520 1518 1515 1513 1511 1508 1507 1505 1505 1505 1506 1506 1508 1509 1511 1513 1514 1517 1519 1521 1523 1525 1526 1528 1530 1531 1533 1534 1536 1538 1540 1540 1542 1543 1545 1546 1547 1547 1547 1547 1546 1545